{"data":{"norad_id":53740,"intl_designator":"2022-107AS","name":"STARLINK-4607","alt_names":[],"object_type":"PAYLOAD","status":"ACTIVE","operator":null,"country":"US","launch_date":"2022-09-05","launch_site_code":"AFETR","launch_vehicle":null,"mission":null,"orbit_class":"UNKNOWN","rcs_meters":null,"size_class":null,"mass_kg":null,"dimensions":null,"purposes":["comms"],"wikipedia_slug":null,"has_3d_model":false,"image_url":null,"decayed_at":null,"tle_current":{"epoch":"2026-05-24T20:34:19.691904Z","epoch_age_seconds":83454,"freshness":"FRESH","line1":"1 53740U 22107AS  26144.85717236  .00000374  00000+0  41585-4 0  9997","line2":"2 53740  53.2112 282.0828 0001925  91.9606 268.1607 15.08840589206098","mean_motion":15.08840589,"eccentricity":0.0001925,"inclination_deg":53.2112,"raan_deg":282.0828,"arg_perigee_deg":91.9606,"mean_anomaly_deg":268.1607,"bstar":4.1585e-5,"rev_number":20609,"period_min":95.437517422193,"perigee_km":538.40989699901,"apogee_km":541.07328025563,"semimajor_km":6917.8785886273,"source":"CELESTRAK","updated_at":"2026-05-25T13:38:17.539118Z"}}}